[[{"header":{"parameterUnit":"m.s-1","parameterCategory":1,"la1":30.2991,"la2":30.254,"lo1":-89.0895,"lo2":-89.0444,"dy":0.0017,"dx":0.0017,"nx":28,"ny":28,"refTime":"2025-01-30T09:00:00:Z","depth":0,"parameterNumber":2,"parameterNumberName":"U-component_of_WINDS"},"data":[0,0,0,0,0,0,0,0,0,0,0,0,0,0,0,0,0,0,0,0,0,0,0,0,0,0,0,0,0,0,0,0,0,0,0,0,0,0,0,0,0,0,0,0,0,0,0,0,0,0,0,0,0,0,0,0,0,0,-0.0916,-0.0916,0,-0.0929,-0.0929,-0.093,-0.0949,-0.095,-0.095,-0.0951,-0.0963,-0.0963,-0.0963,0,0,0,0,0,0,0,0,0,0,0,0,0,-0.0908,-0.0908,-0.0916,-0.0916,-0.0916,-0.0929,-0.0929,-0.093,-0.0949,-0.095,-0.095,-0.0951,-0.0963,-0.0963,-0.0963,0,0,0,0,0,0,0,0,0,0,0,0,0,-0.0915,-0.0908,-0.0916,-0.0928,-0.0929,-0.0929,-0.0929,-0.093,-0.0949,-0.095,-0.095,-0.0951,-0.0963,-0.0963,-0.0963,-0.0953,0,0,-0.0963,-0.0963,0,0,0,0,0,0,0,0,-0.0915,-0.0915,-0.0926,-0.0927,-0.0928,-0.0938,-0.0931,-0.0937,-0.0949,-0.0942,-0.0951,-0.0951,-0.0955,-0.0955,-0.0957,-0.0953,-0.0954,-0.0963,-0.0963,-0.0963,-0.0963,0,0,0,0,0,0,0,-0.0914,-0.0915,-0.0921,-0.0926,-0.0928,-0.0932,-0.0934,-0.0932,-0.0945,-0.0942,-0.0944,-0.0945,-0.0955,-0.0957,-0.0957,-0.0954,-0.0963,-0.0963,-0.0963,-0.0963,-0.0943,-0.0942,0,0,0,0,0,0,-0.0912,-0.0914,-0.0921,-0.0922,-0.0923,-0.0932,-0.0934,-0.0935,-0.0945,-0.0947,-0.0945,-0.0946,-0.0956,-0.0957,-0.0958,-0.0946,-0.0963,-0.0963,-0.0963,-0.0943,-0.0942,-0.0942,0,0,0,0,0,0,-0.0912,-0.0912,-0.092,-0.0918,-0.092,-0.0932,-0.0932,-0.0935,-0.0936,-0.0947,-0.0949,-0.0944,-0.0957,-0.0958,-0.0954,-0.0946,-0.0963,-0.0963,-0.0944,-0.0943,-0.0942,-0.0922,0,0,0,0,0,0,-0.0911,-0.0912,-0.0908,-0.0918,-0.092,-0.0917,-0.0932,-0.0934,-0.0936,-0.0938,-0.0946,-0.0948,-0.0957,-0.0954,-0.0954,-0.0947,-0.0963,-0.0945,-0.0943,-0.0942,-0.0923,-0.092,-0.0918,0,0,0,0,0,-0.0911,-0.0902,-0.0908,-0.0909,-0.0915,-0.0916,-0.0917,-0.0928,-0.0935,-0.0931,-0.0938,-0.0948,-0.0947,-0.0953,-0.0953,-0.0946,-0.0945,-0.0944,-0.0943,-0.0924,-0.0921,-0.0918,0,0,0,0,0,0,-0.0891,-0.0904,-0.091,-0.0904,-0.0909,-0.0919,-0.0915,-0.0924,-0.0926,-0.0928,-0.094,-0.0942,-0.0937,-0.0941,-0.0948,-0.0936,-0.0948,-0.0946,-0.0934,-0.093,-0.0928,-0.0927,-0.0963,0,0,0,0,0,-0.0886,-0.0885,-0.0896,-0.089,-0.0892,-0.0903,-0.0904,-0.0912,-0.0917,-0.0919,-0.0925,-0.093,-0.0931,-0.0931,-0.0932,-0.0924,-0.0926,-0.0919,-0.0917,-0.0914,-0.0913,-0.0909,-0.0906,-0.0938,-0.0938,-0.0938,0,0,-0.0875,-0.0882,-0.0881,-0.0886,-0.0891,-0.089,-0.0905,-0.0903,-0.0903,-0.0918,-0.0915,-0.092,-0.0926,-0.092,-0.0918,-0.0924,-0.0905,-0.0913,-0.0911,-0.0911,-0.0907,-0.0904,-0.0901,-0.0937,-0.0937,-0.0937,0,0,-0.0855,-0.0861,-0.0856,-0.086,-0.0867,-0.0874,-0.0873,-0.0882,-0.0886,-0.0883,-0.0895,-0.0894,-0.0895,-0.0899,-0.0901,-0.0882,-0.0891,-0.0882,-0.0869,-0.0864,-0.0862,-0.0859,-0.0852,-0.085,-0.0881,-0.0881,-0.0881,0,-0.0841,-0.0841,-0.0852,-0.085,-0.0852,-0.0866,-0.0861,-0.0865,-0.0871,-0.0872,-0.0879,-0.088,-0.0885,-0.088,-0.0875,-0.0877,-0.0875,-0.0881,-0.0861,-0.0859,-0.0857,-0.0851,-0.0848,-0.088,-0.088,-0.088,-0.088,0,-0.0823,-0.0822,-0.0818,-0.0824,-0.0825,-0.0821,-0.0832,-0.0832,-0.084,-0.0846,-0.0843,-0.0849,-0.0852,-0.0851,-0.0859,-0.0847,-0.085,-0.0859,-0.087,-0.0853,-0.0847,-0.0844,-0.0878,-0.0879,-0.0879,-0.0879,0,0,-0.0791,-0.0804,-0.0802,-0.0804,-0.0813,-0.0812,-0.0809,-0.0812,-0.0811,-0.0815,-0.0813,-0.0813,-0.0821,-0.0823,-0.0831,-0.0827,-0.0812,-0.0836,-0.0837,-0.0831,-0.0799,-0.0792,-0.0789,-0.0818,-0.0817,-0.0817,-0.0798,0,-0.0773,-0.0768,-0.0779,-0.0772,-0.0771,-0.0785,-0.0782,-0.0786,-0.0792,-0.0792,-0.0799,-0.0799,-0.0809,-0.0811,-0.0808,-0.0814,-0.0805,-0.0816,-0.0815,-0.0815,-0.0813,-0.0786,-0.0779,-0.0762,-0.0796,-0.0796,-0.0795,0,-0.0751,-0.0754,-0.0747,-0.0755,-0.0755,-0.0753,-0.0756,-0.0756,-0.0761,-0.0766,-0.0768,-0.0777,-0.0774,-0.0786,-0.0782,-0.0789,-0.0789,-0.0792,-0.0792,-0.0792,-0.0804,-0.0785,-0.0756,-0.0753,-0.0792,-0.0792,-0.0793,0,-0.0728,-0.073,-0.0726,-0.0728,-0.0738,-0.0736,-0.074,-0.0746,-0.0747,-0.0749,-0.075,-0.0752,-0.0753,-0.0755,-0.0764,-0.0772,-0.0759,-0.0771,-0.0762,-0.0762,-0.0759,-0.0759,-0.0729,-0.076,-0.076,-0.076,-0.076,0,-0.0707,-0.0702,-0.0716,-0.0714,-0.0708,-0.072,-0.0714,-0.072,-0.0725,-0.0723,-0.0735,-0.0733,-0.0746,-0.0745,-0.0753,-0.0748,-0.0749,-0.0752,-0.0754,-0.0751,-0.075,-0.0751,-0.0753,-0.0759,-0.0759,-0.0759,-0.0759,0,-0.068,-0.069,-0.0686,-0.0696,-0.0698,-0.0694,-0.0702,-0.07,-0.0706,-0.0704,-0.0704,-0.0715,-0.0715,-0.0724,-0.0726,-0.0731,-0.0723,-0.0728,-0.0721,-0.0723,-0.0714,-0.0714,-0.0683,-0.0679,-0.0712,-0.0712,-0.0711,0,-0.0666,-0.0663,-0.0672,-0.0672,-0.0675,-0.0675,-0.0676,-0.0687,-0.0687,-0.0693,-0.069,-0.0691,-0.0692,-0.0692,-0.0699,-0.0701,-0.0705,-0.0694,-0.0705,-0.0702,-0.0705,-0.0705,-0.0704,-0.0691,-0.0691,-0.0691,-0.069,0,-0.064,-0.0644,-0.0645,-0.0648,-0.0649,-0.0651,-0.0655,-0.0654,-0.0666,-0.0666,-0.0666,-0.0667,-0.0669,-0.067,-0.0673,-0.0676,-0.0685,-0.0687,-0.0685,-0.0682,-0.0678,-0.068,-0.0715,-0.0687,-0.0688,-0.0688,-0.0688,-0.0688,-0.0619,-0.0616,-0.0622,-0.0623,-0.0626,-0.0629,-0.0627,-0.0634,-0.0634,-0.0637,-0.0643,-0.0642,-0.0647,-0.0652,-0.0655,-0.0654,-0.066,-0.0657,-0.0656,-0.0655,-0.0653,-0.0678,-0.0655,-0.0655,-0.0655,-0.0655,-0.0655,0,-0.0593,-0.0597,-0.0598,-0.0602,-0.0602,-0.0611,-0.0615,-0.0614,-0.0613,-0.0617,-0.0618,-0.0618,-0.0619,-0.0626,-0.0628,-0.0626,-0.063,-0.0626,-0.0626,-0.0627,-0.0648,-0.065,-0.0622,-0.0622,-0.0622,-0.0622,-0.0622,-0.0622,-0.0579,-0.0575,-0.0581,-0.0578,-0.0583,-0.0582,-0.0583,-0.0586,-0.0589,-0.0589,-0.0589,-0.0594,-0.0599,-0.0601,-0.0602,-0.0604,-0.0604,-0.0598,-0.0602,-0.0622,-0.0625,-0.0628,-0.063,-0.0598,-0.0598,-0.058,-0.058,-0.058]},{"header":{"parameterUnit":"m.s-1","parameterCategory":1,"la1":30.2991,"la2":30.254,"lo1":-89.0895,"lo2":-89.0444,"dy":0.0017,"dx":0.0017,"nx":28,"ny":28,"refTime":"2025-01-30T09:00:00:Z","depth":0,"parameterNumber":3,"parameterNumberName":"V-component_of_WINDS"},"data":[0,0,0,0,0,0,0,0,0,0,0,0,0,0,0,0,0,0,0,0,0,0,0,0,0,0,0,0,0,0,0,0,0,0,0,0,0,0,0,0,0,0,0,0,0,0,0,0,0,0,0,0,0,0,0,0,0,0,7.5581,7.5582,0,7.5693,7.5694,7.5696,7.5664,7.5662,7.566,7.5658,7.5767,7.5772,7.5777,0,0,0,0,0,0,0,0,0,0,0,0,0,7.5335,7.5339,7.558,7.5582,7.5583,7.5693,7.5694,7.5696,7.5665,7.5662,7.5659,7.5657,7.5765,7.5771,7.5777,0,0,0,0,0,0,0,0,0,0,0,0,0,7.5443,7.5341,7.558,7.5581,7.5582,7.5693,7.5694,7.5696,7.5665,7.5662,7.5658,7.5655,7.5763,7.5771,7.5778,7.5892,0,0,7.5801,7.5804,0,0,0,0,0,0,0,0,7.5437,7.5453,7.558,7.5581,7.5583,7.5661,7.5648,7.5762,7.5666,7.5634,7.5657,7.5654,7.5734,7.5744,7.5772,7.5898,7.5902,7.5802,7.5806,7.5809,7.5812,0,0,0,0,0,0,0,7.543,7.5447,7.5625,7.5581,7.5583,7.5574,7.5586,7.5669,7.5701,7.5636,7.5634,7.5648,7.5734,7.5765,7.5774,7.5904,7.5801,7.5808,7.5813,7.5816,7.6132,7.6135,0,0,0,0,0,0,7.5422,7.5441,7.5621,7.5628,7.55,7.5582,7.5595,7.5639,7.57,7.5706,7.5651,7.5646,7.5754,7.5766,7.5778,7.5919,7.5809,7.5816,7.5821,7.6128,7.6133,7.6137,0,0,0,0,0,0,7.5417,7.5438,7.5617,7.5534,7.5557,7.559,7.564,7.5643,7.5674,7.5712,7.5717,7.5677,7.5752,7.5768,7.5865,7.5922,7.582,7.5827,7.6123,7.6129,7.6135,7.6199,0,0,0,0,0,0,7.541,7.5436,7.5481,7.5536,7.5561,7.5704,7.5643,7.5648,7.5688,7.5683,7.5737,7.5743,7.575,7.5854,7.5873,7.5931,7.5833,7.6118,7.6126,7.6133,7.6192,7.6207,7.6219,0,0,0,0,0,7.5401,7.5493,7.5484,7.5505,7.5618,7.5707,7.5721,7.5729,7.5693,7.5738,7.5762,7.5741,7.5913,7.5865,7.5885,7.5946,7.6115,7.6124,7.6132,7.6186,7.6204,7.6219,0,0,0,0,0,0,7.5441,7.55,7.549,7.5603,7.5651,7.5701,7.5758,7.5747,7.5804,7.5797,7.5803,7.5815,7.5916,7.594,7.5886,7.6061,7.6008,7.6021,7.6042,7.6059,7.6072,7.6065,7.5839,0,0,0,0,0,7.5464,7.5533,7.5579,7.5674,7.5699,7.5725,7.5763,7.5766,7.5815,7.5834,7.5865,7.5912,7.5977,7.6019,7.608,7.6195,7.6208,7.6247,7.6261,7.6271,7.6283,7.6348,7.6367,7.6165,7.6165,7.6165,0,0,7.551,7.555,7.5593,7.5683,7.572,7.5791,7.5742,7.5817,7.587,7.5845,7.5941,7.5965,7.6018,7.6126,7.6175,7.6149,7.6342,7.6282,7.6291,7.6297,7.6359,7.6379,7.6396,7.6171,7.617,7.6169,0,0,7.5631,7.5668,7.5752,7.5792,7.585,7.5867,7.5887,7.5941,7.5957,7.6054,7.6037,7.6098,7.6209,7.6248,7.6282,7.6421,7.6405,7.644,7.651,7.6574,7.659,7.6604,7.6656,7.6674,7.6452,7.6452,7.6452,0,7.568,7.5788,7.5796,7.5876,7.5916,7.59,7.5986,7.6022,7.6096,7.6124,7.6095,7.6236,7.6269,7.6388,7.6422,7.6449,7.6473,7.6435,7.6587,7.6601,7.6615,7.6664,7.6683,7.6456,7.6455,7.6455,7.6455,0,7.5847,7.5922,7.5983,7.6059,7.6106,7.6188,7.6208,7.6255,7.6254,7.6274,7.6373,7.6413,7.6484,7.6512,7.6509,7.6631,7.6613,7.6585,7.6532,7.6638,7.6685,7.6704,7.6462,7.646,7.6459,7.6458,0,0,7.5996,7.6078,7.61,7.6136,7.62,7.6257,7.6338,7.641,7.6451,7.6502,7.6571,7.6666,7.6642,7.6681,7.6683,7.6739,7.685,7.6705,7.6706,7.6732,7.6988,7.701,7.7032,7.6839,7.6842,7.6845,7.6984,0,7.6124,7.627,7.6281,7.6412,7.6483,7.6469,7.6539,7.6586,7.6607,7.6669,7.6691,7.676,7.6721,7.6745,7.6799,7.6825,7.6901,7.6814,7.6903,7.6906,7.6893,7.7056,7.7079,7.7208,7.7002,7.7005,7.7008,0,7.6293,7.6354,7.6493,7.655,7.658,7.6644,7.6712,7.6771,7.6824,7.6835,7.688,7.6876,7.6959,7.6902,7.7017,7.6958,7.6995,7.7013,7.7018,7.7028,7.6965,7.7072,7.7249,7.727,7.7036,7.7034,7.7032,0,7.6391,7.6507,7.6606,7.6637,7.6705,7.6751,7.6781,7.683,7.6873,7.6932,7.696,7.7027,7.7063,7.7115,7.7128,7.7085,7.7244,7.7188,7.7256,7.7256,7.7291,7.7289,7.7479,7.7312,7.7311,7.7311,7.7311,0,7.6534,7.662,7.6652,7.6713,7.6809,7.6821,7.6916,7.6943,7.6988,7.7053,7.7043,7.7105,7.7118,7.7182,7.7192,7.7288,7.7303,7.7315,7.7317,7.7318,7.7317,7.7343,7.7335,7.7316,7.7315,7.7314,7.7313,0,7.666,7.6685,7.6792,7.6849,7.6866,7.6935,7.6983,7.7041,7.7062,7.7145,7.7165,7.7197,7.7272,7.7291,7.7379,7.7386,7.75,7.7492,7.7483,7.7483,7.7552,7.7546,7.7767,7.7797,7.7608,7.761,7.7611,0,7.6751,7.6818,7.6883,7.6928,7.6961,7.7033,7.7078,7.7092,7.7139,7.7206,7.7257,7.7331,7.7392,7.7513,7.7543,7.7611,7.7606,7.7679,7.7616,7.7615,7.761,7.7607,7.7615,7.7691,7.7693,7.7695,7.7696,0,7.6911,7.692,7.6987,7.706,7.7115,7.7171,7.7225,7.7261,7.7283,7.7336,7.7415,7.7462,7.7555,7.763,7.7699,7.7728,7.7717,7.7716,7.7736,7.7738,7.7731,7.7738,7.7518,7.7711,7.7709,7.7708,7.7708,7.7707,7.7024,7.7084,7.714,7.7215,7.7258,7.731,7.7369,7.7398,7.7465,7.7543,7.7547,7.7633,7.7685,7.7777,7.7811,7.7878,7.7855,7.7883,7.7891,7.7898,7.7906,7.7719,7.789,7.7889,7.7889,7.7889,7.7888,0,7.7185,7.7221,7.7291,7.7369,7.7428,7.7414,7.7474,7.7524,7.7601,7.7652,7.7713,7.7804,7.7877,7.7914,7.7986,7.8032,7.8029,7.8051,7.8049,7.8056,7.792,7.7897,7.8053,7.8053,7.8053,7.8053,7.8053,7.8053,7.7276,7.7378,7.7395,7.7517,7.7552,7.7639,7.7675,7.7722,7.7763,7.7867,7.7928,7.7953,7.7998,7.8074,7.8141,7.815,7.8177,7.8203,7.8209,7.8082,7.8065,7.8049,7.8028,7.8208,7.8209,7.834,7.8341,7.8342]}]]